Terug naar catalogus

STARLINK-30927

ActiefCommunicatieVLEO
NORAD 58382·PAYLOAD·🇺🇸 United States

Gelanceerd Nov 20, 2023 vanaf Vandenberg Space Force Base

Loading…

Volgende Passages (komende 24 uur)

TLE

VersSource: CelesTrak SupGP

Epoch: Sep 15, 2026, 03:15 UTC

1 58382C 23178J   26258.13590278 -.00076596  00000+0 -22626-2 0  2587
2 58382  53.1578 197.1441 0001400  84.1624 235.6772 15.34435076    15

Volg STARLINK-30927 in realtime met AllMySat

Download on the App Store